1998-067UY

Last updated on Wed Feb 01 2023 00:03:43 GMT+0000 (Coordinated Universal Time)

1 55181U 98067UY 23031.51436527 .00069897 00000+0 10405-2 0 9992 2 55181 51.6400 285.0659 0004318 255.6043 104.4469 15.54470765 3919
UTC large
Height (km)
Speed (km/s)
/
Latitude / Longitude
Inclination (degrees)
Orbital Period (minutes)
Azimuth
Elevation
Range (km)
Doppler Factor

Next 0 passes for location: London (51.5072 / 0.1276)

Sorry there are no passes over London.